Theta_e
349 353 357 361 362 365 365 365 368 368 368 367 365 362 361 362 362 362 361 362 362 361 361 362 361 362 361 362 362 362 362 362 362 361 361 361 361 361 360 361 360 355 359
352 355 358 363 363 363 365 366 367 367 367 366 366 365 363 363 363 362 362 362 362 362 361 361 362 362 361 362 362 361 361 360 359 360 360 361 361 360 358 357 356 358 359
352 354 358 364 364 363 364 365 366 365 365 367 366 365 363 363 363 363 363 362 362 362 361 361 360 360 360 362 362 362 361 360 359 360 359 357 357 360 360 359 360 359 359
354 356 358 364 366 363 363 364 365 363 363 364 363 363 363 362 362 363 363 362 362 362 362 361 361 361 361 360 359 359 359 361 361 360 358 357 354 359 358 359 359 358 358
356 359 359 363 366 363 364 363 364 363 363 363 363 363 363 362 362 363 363 363 362 362 361 361 361 361 361 360 359 357 358 360 358 357 359 359 356 358 358 358 358 358 356
356 358 361 363 364 364 364 363 363 362 362 362 363 363 363 363 363 362 363 362 361 360 361 361 360 360 359 359 358 358 358 357 355 354 355 357 357 358 359 358 359 358 359
356 359 357 364 361 363 363 363 363 362 362 362 362 363 363 363 362 362 359 362 360 361 362 362 361 360 359 358 357 357 356 356 353 355 352 349 353 357 356 355 355 355 355
355 358 357 360 361 360 361 362 361 361 362 362 361 362 363 362 362 362 359 360 363 362 361 360 359 358 358 357 355 355 354 354 352 352 354 350 352 356 356 356 356 357 357
357 356 356 356 358 361 363 361 361 361 360 360 361 361 363 362 362 361 360 358 358 359 361 358 355 356 356 356 355 353 355 351 354 354 351 352 355 357 357 357 357 358 357
357 355 355 357 355 358 362 362 361 361 360 360 361 361 361 361 360 361 360 360 357 356 358 356 357 357 357 356 355 354 357 352 350 350 348 351 353 353 356 358 359 357 357
351 352 350 353 358 362 362 361 362 361 360 363 359 360 360 354 357 356 358 358 357 358 357 357 357 358 356 355 354 355 359 353 348 350 352 349 353 354 353 357 357 357 356
343 347 349 357 360 360 357 361 361 359 357 363 359 359 354 352 354 353 354 356 356 356 357 356 356 354 354 353 353 355 357 351 350 348 349 348 351 355 354 356 358 357 357
342 346 354 358 360 359 359 361 361 357 357 358 355 354 352 349 346 348 350 357 360 354 354 354 354 353 354 355 354 355 354 353 350 349 351 350 351 353 353 354 356 358 358
344 345 352 357 360 361 361 360 364 363 361 357 357 354 349 343 343 344 343 348 352 352 351 350 348 349 348 346 345 351 354 354 354 354 354 351 351 352 354 355 356 357 359
347 346 351 356 357 356 352 349 359 359 361 359 357 354 348 346 345 345 343 343 345 349 348 348 345 344 343 344 348 350 350 353 353 352 353 352 351 353 355 357 357 357 358
348 346 348 352 356 354 353 350 354 357 356 356 356 358 349 349 346 345 345 344 345 341 344 345 344 344 346 348 348 350 351 352 353 354 353 354 352 353 356 358 359 360 360
349 350 351 352 354 356 357 355 356 356 356 355 356 357 357 357 354 348 345 343 343 347 346 346 346 347 348 349 349 351 350 351 351 353 354 353 354 354 357 357 361 361 360
348 349 352 352 353 355 356 357 356 356 355 354 355 352 352 353 353 352 349 346 347 345 346 344 345 344 344 344 353 355 350 350 351 352 353 353 353 353 355 355 357 360 358
347 348 350 353 353 355 358 358 357 357 354 348 348 348 350 351 353 352 350 351 351 349 349 351 347 347 343 344 348 350 351 350 351 350 350 352 353 353 352 356 357 358 357
348 348 348 350 353 356 356 357 355 352 354 345 344 345 347 350 350 351 351 350 352 350 350 349 349 350 352 349 349 346 350 351 351 350 349 350 351 351 352 354 354 353 358
349 349 350 350 352 353 351 351 351 350 353 350 349 350 351 350 348 348 346 350 352 348 350 352 351 348 345 347 346 347 347 351 351 350 350 350 350 350 351 352 353 353 355
349 349 350 351 353 353 352 355 355 355 355 356 355 354 353 353 352 353 349 350 350 347 349 351 349 346 346 346 345 348 338 341 345 348 349 348 349 350 349 351 353 355 356
347 349 349 352 353 353 353 355 355 356 356 357 354 351 352 354 355 355 354 353 351 349 343 346 348 345 343 349 352 349 339 337 341 345 348 348 349 349 349 350 351 353 357
345 348 350 351 351 352 353 352 352 350 351 359 356 360 365 357 354 354 355 354 351 350 348 348 348 348 346 347 350 350 347 343 337 336 346 348 351 348 349 350 350 351 354
348 348 350 354 354 353 351 351 349 348 353 356 360 361 361 361 359 360 359 355 351 351 348 348 348 348 350 348 347 352 348 345 346 340 336 340 347 349 351 353 353 352 354
346 345 347 351 348 347 346 343 340 341 348 353 357 358 358 357 357 357 359 361 357 353 351 351 351 350 349 350 349 348 348 345 341 339 337 339 343 345 349 351 353 354 355
Wind_Speed
5 9 11 14 15 14 14 15 15 16 17 17 17 16 14 12 12 11 11 11 11 11 10 10 11 13 12 13 15 14 13 13 13 13 13 12 12 12 11 12 9 12 12
11 8 8 14 15 14 13 14 15 16 16 16 16 15 14 13 11 12 12 12 11 12 11 11 11 13 13 14 14 13 12 11 9 12 12 12 11 12 11 10 7 12 12
15 10 11 14 15 14 13 13 14 15 15 15 15 14 12 11 11 13 13 12 12 12 12 12 12 12 12 13 13 12 13 12 12 11 10 6 10 10 11 11 11 11 11
14 13 10 13 15 14 13 13 13 14 14 13 13 12 11 10 10 12 13 12 13 12 13 12 12 12 13 14 13 12 12 14 12 11 7 6 9 10 9 9 10 11 11
11 12 12 12 14 14 14 13 12 13 13 12 12 12 11 11 10 12 12 12 13 12 12 12 13 12 13 13 11 10 10 11 11 8 8 7 5 9 10 9 9 10 7
12 12 14 13 13 13 12 12 12 12 11 11 11 10 11 11 10 12 11 12 12 11 12 12 13 12 12 10 9 9 8 9 8 7 6 8 7 9 9 8 8 8 9
11 11 13 11 12 11 11 10 10 9 9 9 9 9 9 11 11 12 10 11 12 11 11 12 12 11 10 9 8 8 7 6 7 6 6 5 7 7 8 7 7 7 7
12 11 12 11 11 11 10 9 8 7 7 7 7 8 9 8 10 12 11 10 11 11 11 11 10 9 9 7 6 6 6 7 7 6 5 5 6 7 8 7 6 6 6
11 11 10 10 10 10 9 9 8 7 6 6 6 6 8 8 9 10 11 10 10 10 10 10 9 9 8 6 4 3 5 6 5 4 3 4 6 5 5 8 7 6 6
9 10 10 9 9 8 8 10 9 7 7 6 6 6 6 7 7 8 7 8 10 9 8 8 8 7 5 4 3 1 2 3 3 4 3 3 6 5 6 8 8 7 6
8 9 9 9 8 7 6 7 8 8 8 8 5 4 3 3 2 3 5 7 6 7 6 6 6 6 5 4 4 4 6 1 1 1 1 2 6 8 8 8 8 7 7
12 11 9 8 7 7 5 5 5 5 6 4 2 2 2 3 3 2 2 3 5 5 5 6 5 5 7 3 3 4 3 2 3 2 3 4 8 8 9 8 9 9 10
12 10 11 8 7 7 5 4 3 4 3 3 3 3 3 1 1 2 2 2 1 1 4 5 5 5 4 3 3 4 5 4 3 2 4 6 7 10 10 10 10 12 12
11 12 11 10 9 9 4 3 5 5 5 4 6 5 3 2 3 3 1 3 4 4 4 4 4 4 4 5 6 6 7 6 5 4 6 8 10 10 11 13 14 14 15
13 13 14 14 12 8 6 4 5 6 6 7 6 5 4 4 4 4 3 3 4 5 5 5 4 4 4 6 7 7 8 8 8 5 5 8 13 12 13 14 16 17 17
12 14 13 14 11 6 7 9 7 6 7 6 6 7 7 6 5 5 4 5 5 3 7 6 6 6 6 7 8 8 9 9 8 8 6 6 12 14 14 14 16 18 19
11 11 12 13 12 11 12 11 7 6 5 5 6 5 5 7 8 7 5 5 5 4 6 4 4 3 7 8 10 9 9 10 10 10 8 7 6 12 15 11 13 13 16
11 13 12 11 12 13 11 9 8 6 5 2 2 5 7 8 10 9 8 8 6 4 4 5 5 5 7 6 8 8 8 9 11 12 10 9 8 6 8 13 12 15 17
13 12 13 13 14 12 11 8 7 6 3 3 2 3 8 9 9 8 8 9 8 7 7 7 6 9 7 6 9 9 9 9 10 10 13 12 11 9 7 8 12 12 20
11 11 11 10 12 10 6 5 4 2 3 5 6 6 9 5 6 8 8 9 9 8 8 8 10 8 8 9 8 7 9 9 9 10 12 11 12 12 11 10 8 9 16
10 10 11 11 10 7 5 3 4 5 4 6 5 9 7 6 7 8 8 9 9 9 10 10 9 9 8 6 6 6 10 12 12 10 10 10 12 13 12 10 8 7 7
11 11 9 9 8 7 5 2 1 1 2 3 4 6 6 9 9 11 11 8 8 6 10 11 10 5 4 4 5 5 4 4 7 10 9 9 12 11 12 13 12 11 9
7 8 8 7 5 3 2 3 2 1 3 3 3 4 6 9 11 9 9 7 6 6 6 8 9 10 6 6 10 5 3 3 2 2 6 7 10 10 11 12 12 12 11
4 4 5 5 5 5 4 2 4 5 6 4 5 5 5 6 8 9 9 8 6 6 9 7 8 10 7 8 4 8 9 4 4 4 4 4 3 6 9 9 11 12 13
3 10 9 11 13 13 11 7 5 7 8 5 6 4 2 3 1 2 5 6 6 5 6 8 8 9 7 8 6 5 8 6 10 8 8 5 4 5 5 6 6 9 12
9 10 13 16 13 11 11 9 9 11 11 6 3 3 3 3 3 6 5 3 2 4 6 6 7 8 7 8 6 8 7 4 4 5 7 8 7 7 7 7 8 9 9
Wind_Direction
137 139 154 140 127 119 115 110 112 119 129 130 129 134 135 133 131 126 122 121 116 110 114 103 93 99 102 101 100 103 106 110 117 111 113 115 113 101 96 93 119 98 94
122 117 166 136 123 120 114 115 110 112 119 127 127 132 136 133 134 131 131 120 119 114 114 105 104 103 106 107 108 109 114 117 107 112 119 111 102 103 104 99 96 95 99
135 162 171 131 123 124 120 115 112 113 119 123 124 130 132 130 132 132 125 127 120 117 113 110 111 108 107 108 104 110 113 112 114 110 101 96 97 99 101 104 102 103 99
145 162 143 127 126 128 120 116 116 122 126 125 126 130 130 125 136 135 126 125 115 120 117 115 109 111 113 105 104 98 100 102 103 112 114 108 103 105 99 104 106 103 103
143 142 137 131 126 126 120 121 127 130 130 131 133 134 133 138 143 128 130 129 120 124 120 125 112 114 112 110 110 105 107 114 110 118 111 110 102 107 109 110 116 109 94
144 144 131 134 127 125 125 129 132 135 137 140 136 136 135 139 145 133 133 127 132 130 123 118 121 120 118 116 111 102 106 126 133 107 111 106 106 111 113 108 105 105 110
143 140 142 142 137 133 133 133 132 136 141 142 141 142 142 145 149 141 145 142 142 136 129 124 126 131 130 122 105 93 86 126 137 131 120 112 119 127 121 122 125 124 121
146 149 145 150 150 152 149 140 142 145 149 148 149 155 154 153 155 151 152 151 140 140 136 128 132 141 140 131 113 99 92 89 143 140 130 122 126 142 133 145 146 149 137
150 148 153 159 162 163 164 156 152 158 164 165 165 160 146 166 163 161 157 154 154 151 141 136 145 152 152 153 160 120 117 123 134 152 153 151 164 160 145 141 151 157 158
161 158 162 168 168 178 181 173 171 174 178 190 160 164 155 164 170 168 164 167 164 157 153 150 148 158 154 149 172 178 122 106 142 139 165 189 193 195 170 157 167 171 176
178 176 171 171 183 188 182 181 180 181 199 175 171 172 90 42 64 177 155 181 175 155 158 163 177 175 184 194 213 222 191 225 184 218 180 118 227 215 198 189 189 192 191
178 182 177 183 185 187 196 199 197 197 206 184 174 116 86 78 66 353 304 217 201 175 189 187 202 212 220 224 226 250 223 205 241 250 270 226 242 229 213 219 204 206 207
182 183 187 186 191 202 204 202 210 205 191 142 177 190 189 199 342 274 249 258 227 229 226 205 206 227 224 244 256 265 259 234 234 263 257 253 234 227 237 238 227 218 218
190 196 191 192 194 205 196 197 207 208 209 199 208 207 195 216 234 248 289 270 246 233 233 229 233 248 252 252 258 256 256 256 252 244 263 247 245 238 249 243 232 222 221
196 197 203 197 200 205 114 257 239 224 212 216 211 204 202 233 247 243 231 244 257 263 248 242 238 250 258 267 259 252 251 256 263 250 263 239 244 247 248 247 240 237 224
198 201 204 214 209 197 186 206 221 223 229 228 226 221 203 236 235 240 245 250 246 233 259 261 259 266 262 262 258 253 255 259 255 259 255 257 237 244 245 242 236 239 222
203 203 210 213 206 217 213 217 218 226 221 237 253 258 254 252 247 245 260 251 254 219 252 257 255 251 278 267 256 256 254 252 254 252 254 255 245 223 247 244 234 219 214
220 207 212 216 214 211 219 223 225 210 210 213 310 324 301 282 272 270 264 257 237 227 219 218 232 232 240 242 259 259 260 256 251 247 246 250 250 256 222 239 254 228 224
219 218 216 218 224 221 215 223 235 232 187 74 45 285 282 277 266 265 272 278 259 251 246 242 226 240 243 245 260 257 254 253 252 245 239 239 243 246 248 220 238 243 230
229 219 221 224 229 220 217 207 218 212 193 148 193 220 243 256 274 273 260 255 257 257 254 247 252 258 254 263 264 269 264 257 253 245 239 236 234 238 234 234 234 227 223
227 226 218 219 222 200 192 198 228 235 201 190 202 224 224 208 194 255 251 247 237 237 253 256 257 251 255 253 263 250 256 254 247 241 236 234 235 231 234 237 237 240 226
218 218 220 221 213 212 205 138 125 157 191 243 218 239 243 239 215 228 237 241 236 235 252 255 242 234 235 212 241 249 270 228 236 243 235 236 236 233 230 228 237 232 237
218 233 225 220 214 174 180 125 103 302 270 250 233 257 244 249 270 271 247 252 240 210 207 227 236 228 225 213 230 258 244 263 304 213 233 232 239 235 238 238 234 233 231
108 141 156 169 111 106 118 67 350 325 305 312 299 274 265 242 260 268 262 250 244 226 227 229 220 223 213 237 213 240 252 258 268 262 214 214 236 241 233 232 234 231 233
150 120 110 105 105 102 93 85 68 352 304 304 296 304 95 120 358 327 272 257 238 228 250 242 225 227 210 229 209 227 234 226 246 257 272 261 244 245 241 237 229 236 228
76 89 114 101 110 122 127 137 87 31 341 307 323 340 7 35 32 15 356 342 260 236 232 230 242 235 221 224 223 233 230 196 198 211 247 268 274 276 264 249 244 233 235